User: anonymous   Login
Location: Unspecified
(0.0000°N, 0.0000°E)
Time: 07:29:24
(UTC+01:00)
Language:

CZ-4B R/B - Orbit

View from above orbital plane
View from above orbital plane
View from above satellite
View from above satellite

Ground track
Ground track

The orbit data is extracted from the following two-line orbital elements,

1 33410U 08053C   15 63.80198737  .00004695  00000-0  35820-3 0  9990
2 33410 097.6185 038.1068 0128014 113.4217 248.1030 14.95652458345773
Epoch (UTC): 04 March 2015 19:14:51
Eccentricity: 0.0128014
inclination: 97.6185°
perigee height: 491 km
apogee height: 669 km
right ascension of ascending node: 38.1068°
argument of perigee: 113.4217°
revolutions per day: 14.95652458
mean anomaly at epoch: 248.1030°
orbit number at epoch: 34577

The dashed part of the orbit path shows where the satellite is in the earth's shadow,  

DLR